Location: Bruderhein
(53.8035°N, 112.9265°W)
Time: 02:20:31
(UTC+00:00)

KKS-1 - Pass Details

Date: 10 April 2023
Orbit: 633 x 644 km, 98.2° (Epoch: 31 May)

Event Time Altitude Azimuth Distance (km) Brightness Sun altitude
Rises 04:41:34 0° 30° (NNE) 2,945 ? -18.6°
Reaches altitude 10° 04:45:11 10° 62° (ENE) 2,030 ? -18.9°
Enters shadow 04:45:42 11° 68° (ENE) 1,960 ? -19.0°
